This is the latest recevied weather packets stored in our database for station/object KB9MLJ. If no packets are shown the sender has not sent any weather packets the latest 10 day(s).
| Time | Temp. | Humidity | Pressure | Rain* | Wind** | Luminosity | Snow |
|---|---|---|---|---|---|---|---|
| 1777911713 | 23.89° C | 57% | 1002.3 hPa | 0 mm | - | 734 W/m² | - |
| 1777911410 | 23.33° C | 57% | 1002.6 hPa | 0 mm | - | 730 W/m² | - |
| 1777911108 | 23.33° C | 56% | 1002.6 hPa | 0 mm | - | 743 W/m² | - |
| 1777910805 | 23.33° C | 57% | 1002.3 hPa | 0 mm | - | 765 W/m² | - |
| 1777910501 | 23.33° C | 57% | 1002.6 hPa | 0 mm | - | 726 W/m² | - |
| 1777910198 | 22.22° C | 58% | 1002.6 hPa | 0 mm | - | 740 W/m² | - |
| 1777909895 | 22.22° C | 58% | 1002.6 hPa | 0 mm | - | 734 W/m² | - |
| 1777909592 | 22.22° C | 57% | 1003 hPa | 0 mm | - | 728 W/m² | - |
| 1777909289 | 22.22° C | 59% | 1002.6 hPa | 0 mm | - | 744 W/m² | - |
| 1777908987 | 22.22° C | 58% | 1003 hPa | 0 mm | - | 754 W/m² | - |
| 1777908685 | 22.22° C | 59% | 1003 hPa | 0 mm | - | 735 W/m² | - |
| 1777908382 | 21.67° C | 59% | 1003 hPa | 0 mm | - | 764 W/m² | - |
| 1777908078 | 21.67° C | 60% | 1003 hPa | 0 mm | - | 770 W/m² | - |
| 1777907774 | 21.11° C | 60% | 1003 hPa | 0 mm | - | 767 W/m² | - |
| 1777907469 | 21.11° C | 60% | 1003.3 hPa | 0 mm | - | 746 W/m² | - |
| 1777907166 | 21.11° C | 60% | 1003.3 hPa | 0 mm | - | 747 W/m² | - |
| 1777906863 | 21.11° C | 61% | 1003.3 hPa | 0 mm | - | 717 W/m² | - |
| 1777906561 | 21.11° C | 61% | 1003.3 hPa | 0 mm | - | 741 W/m² | - |
| 1777906255 | 20.56° C | 61% | 1003.3 hPa | 0 mm | - | 707 W/m² | - |
| 1777905952 | 20.56° C | 63% | 1003.3 hPa | 0 mm | - | 661 W/m² | - |
| 1777905649 | 20.56° C | 61% | 1003.7 hPa | 0 mm | - | 661 W/m² | - |
| 1777905346 | 20° C | 63% | 1003.7 hPa | 0 mm | - | 663 W/m² | - |
| 1777905044 | 20.56° C | 63% | 1004 hPa | 0 mm | - | 635 W/m² | - |
| 1777904741 | 19.44° C | 64% | 1003.7 hPa | 0 mm | - | 638 W/m² | - |
| 1777904438 | 19.44° C | 65% | 1004 hPa | 0 mm | - | 597 W/m² | - |
* Rain latest hour (hover to see other rain measurements)
** Current wind speed in m/s (hover to see current wind gust speed)